ALTAIR (RS65S)

Last updated on Fri May 09 2025 00:03:04 GMT+0000 (Coordinated Universal Time)

1 61779U 24199AW 25128.53056465 .00009713 00000+0 35267-3 0 9992 2 61779 97.3611 356.7629 0014225 316.0188 43.9919 15.28418077 75143
UTC large
Height (km)
Speed (km/s)
/
Latitude / Longitude
Inclination (degrees)
Orbital Period (minutes)
Azimuth
Elevation
Range (km)
Doppler Factor

Next 0 passes for location: London (51.5072 / 0.1276)

Sorry there are no passes over London.